Miscellaneous Local Product
Issued by NWS Hastings, NE

Home | Current Version | Previous Version | Text Only | Print | Product List | Glossary On
Versions: 1 2 3 4 5 6 7 8 9 10 11 12 13 14 15 16 17 18 19 20 21 22 23 24 25 26 27 28 29 30 31 32 33 34 35 36 37 38 39 40 41 42 43 44 45 46 47 48 49 50
000
AXUS43 KGID 051102
MISGRI

GID CWA HOURLY WEATHER ROUNDUP
NATIONAL WEATHER SERVICE HASTINGS NE
600 AM CDT TUE MAY 05 2015

NOTE: "FAIR" INDICATES FEW OR NO CLOUDS BELOW 12,000 FEET WITH NO
SIGNIFICANT WEATHER AND/OR OBSTRUCTIONS TO VISIBILITY.

...SOUTH CENTRAL NEBRASKA...

CITY           SKY/WX    TMP DP  RH WIND       PRES   REMARKS
GRAND ISLAND   FOG       55  55 100 NE6       30.04S VSB 1/4
HASTINGS       FOG       57  57 100 CALM      30.01F VSB 1/4
KEARNEY        CLOUDY    55  54  94 NE6       30.02F VSB 1/4
ORD            FOG       54  53  97 NE6       30.04F VSB 1/2
YORK           FOG       57  57 100 NE5       30.03F VSB<1/4
AURORA         FOG       56  56 100 NE6       30.03S VSB 1/4
LEXINGTON      FOG       55  54  97 NE3       30.02F VSB 1
HOLDREGE       FOG       55  54  97 CALM      30.01F VSB 1/4
HEBRON         CLOUDY    61  56  85 S6        30.02F

...NEBRASKA PANHANDLE...

CITY           SKY/WX    TMP DP  RH WIND       PRES   REMARKS
CHADRON        PTCLDY    41  38  89 CALM      30.02F
ALLIANCE       CLOUDY    47  44  90 E5        30.02F
SCOTTSBLUFF    CLOUDY    47  44  90 SE8       30.03F
SIDNEY         FOG       45  44  97 S5        30.04F VSB 3/4

...WESTERN AND NORTH CENTRAL NEBRASKA...

CITY           SKY/WX    TMP DP  RH WIND       PRES   REMARKS
VALENTINE      CLOUDY    50  41  71 E7        30.05F
AINSWORTH      CLOUDY    53  47  79 E8        30.06F
ONEILL         LGT RAIN  53  51  94 E6        30.08S
BROKEN BOW     FOG       54  53  97 NE6       30.03F VSB 1/2
IMPERIAL       FOG       50  49  96 N3        30.03F VSB 1/2
NORTH PLATTE   CLOUDY    51  51 100 E5        30.03F FOG
MCCOOK         FOG       53  52  96 N6        30.01F VSB 1/4

...EASTERN NEBRASKA...

CITY           SKY/WX    TMP DP  RH WIND       PRES   REMARKS
NORFOLK        CLOUDY    55  54  96 E3        30.06R FOG
SO SIOUX CITY  LGT RAIN  54  49  83 E9        30.07S
TEKAMAH        CLOUDY    57  56  96 N9        30.05S FOG
COLUMBUS       CLOUDY    55  50  82 NE7       30.06S VSB 1
ALBION         CLOUDY    54  52  94 NE7       30.06F FOG
OMAHA EPPLEY   CLOUDY    59  58  96 SE9       30.06R FOG
OFFUTT AFB     CLOUDY    60  59  96 E3        30.06R
MILLARD        CLOUDY    60  59  96 S3        30.05R FOG
LINCOLN        CLOUDY    60  59  96 E5        30.05R FOG
NEBRASKA CITY  CLOUDY    59  59 100 S5        30.06S
BEATRICE       CLOUDY    59  58  97 SE7       30.03S
FALLS CITY     MOCLDY    58  56  93 SE3       30.05S

...NORTHERN KANSAS...

CITY           SKY/WX    TMP DP  RH WIND       PRES   REMARKS
GOODLAND       FOG       52  51  97 E7        30.02F VSB 3/4
HILL CITY      CLOUDY    59  57  93 SE3       30.02S FOG
NORTON         CLOUDY    55  54  94 CALM      30.01S FOG
PHILLIPSBURG   PTCLDY    61  61 100 SE5       30.01S FOG
SMITH CENTER   CLEAR     55  55 100 E6        30.01F
HAYS           CLOUDY    57  52  82 SE12      30.01S
RUSSELL        CLOUDY    59  59 100 SE13      29.99F
CONCORDIA      MOCLDY    58  57  97 SE6       30.03S
SALINA         MOCLDY    60  56  86 SE7       30.03F
TOPEKA         CLEAR     59  58  96 CALM      30.07R



USA.gov is the U.S. government's official web portal to all federal, state and local government web resources and services.